Regional Weather Roundup
Issued by NWS

Home | Current Version | Previous Version | Text Only | Print | Product List | Glossary Off
Versions: 1 2 3 4 5 6 7 8 9 10 11 12 13 14 15 16 17 18 19 20 21 22 23 24 25 26 27 28 29 30 31 32 33 34 35 36 37 38 39 40 41 42 43 44 45 46 47 48 49 50

000
ASUS45 KABQ 191110
RWRNM
WEATHER ROUNDUP FOR NEW MEXICO
NATIONAL WEATHER SERVICE ALBUQUERQUE NM
500 AM MDT SAT APR 19 2014

NOTE: "FAIR" MEANS FEW OR NO CLOUDS BELOW 12,000 FEET AGL WITH NO
       SIGNIFICANT WEATHER OR OBSTRUCTIONS TO VISION.

      THIS PRODUCT IS RELEASED AS TWO VERSIONS.  ONE VERSION NEAR
      THE TOP OF THE HOUR CONTAINING PRELIMINARY DATA FROM ALBUQUERQUE
      AND OTHER STATIONS.  A FINAL VERSION WITH ADDITIONAL DATA IS
      ISSUED ABOUT 10 MINUTES AFTER THE HOUR.

NMZ501-503-504-510>518-191200-
NORTHWEST PLATEAU/NORTHCENTRAL MOUNTAINS

CITY           SKY/WX    TMP DP  RH WIND       PRES   REMARKS
FARMINGTON     CLEAR     45  41  86 NE6       30.09F
LOS ALAMOS     PTCLDY    47  37  68 W5        30.17S
SANTA FE       PTCLDY    45  42  89 CALM      30.13R
TAOS           MOCLDY    43  34  70 NE8       30.18F
ANGEL FIRE     PTSUNNY   40  34  79 CALM      30.20S

$$
NMZ402-403-502-505>509-191200-
WESTCENTRAL MOUNTAINS/SOUTHWEST MOUNTAINS

CITY           SKY/WX    TMP DP  RH WIND       PRES   REMARKS
GALLUP         PTCLDY    34  29  82 NE5       30.14R WCI  30
GRANTS         CLEAR     35  29  80 CALM      30.15S
SILVER CITY    LGT RAIN  50  46  87 W13G21    30.15R

$$
NMZ407-409-411-412-191200-
SOUTHERN DESERTS

CITY           SKY/WX    TMP DP  RH WIND       PRES   REMARKS
LORDSBURG      TSTM      52  50  93 E12       30.08R
DEMING         LGT RAIN  54  48  80 NW17G28   30.05R
LAS CRUCES     CLOUDY    62  44  50 S10       30.02R
HOLLOMAN AFB   PTCLDY    56  48  74 W6        30.02R
ALAMOGORDO     CLOUDY    57  45  62 N9        30.03R
T OR C         CLOUDY    59  40  49 N9        30.03R

$$
NMZ519>523-191200-
CENTRAL VALLEYS/CENTRAL HIGHLANDS

CITY           SKY/WX    TMP DP  RH WIND       PRES   REMARKS
ALBUQUERQUE    PTCLDY    53  39  59 E3        30.09S
MORIARTY ARPT  FAIR      39  38  94 CALM      30.14S
CLINES CORNERS PTCLDY    44  36  73 SW7       30.14R
BELEN          PTSUNNY   47  35  62 NW5       30.09R
SOCORRO        FAIR      49  35  58 NW6       30.06S

$$
NMZ524>526-539-540-191200-
SOUTHCENTRAL MOUNTAINS

CITY           SKY/WX    TMP DP  RH WIND       PRES   REMARKS
RUIDOSO        MOCLDY    48  41  76 CALM      30.17S

$$
NMZ527>531-191200-
NORTHEAST HIGHLANDS/NORTHEAST PLAINS

CITY           SKY/WX    TMP DP  RH WIND       PRES   REMARKS
LAS VEGAS      PTCLDY    42  33  70 S10       30.13R
RATON          MOCLDY    44  38  79 NE5       30.07S
CLAYTON        MOCLDY    53  42  66 SW8       30.03R

$$
NMZ532>537-191200-
EASTCENTRAL PLAINS

CITY           SKY/WX    TMP DP  RH WIND       PRES   REMARKS
TUCUMCARI      MOCLDY    60  43  53 SW15      30.05R
CANNON AFB     CLOUDY    50  42  74 S6        30.10F
CLOVIS AIRPORT CLOUDY    48  39  71 S6        30.12F

$$
NMZ028-029-538-191200-
SOUTHEAST PLAINS

CITY           SKY/WX    TMP DP  RH WIND       PRES   REMARKS
ROSWELL        CLOUDY    62  49  62 SW8       30.04F
ARTESIA        MOCLDY    55  54  94 W12       30.03S
CARLSBAD       MOCLDY    58  53  84 S7        30.03R


$$



USA.gov is the U.S. government's official web portal to all federal, state and local government web resources and services.